Zurück zum Katalog

COSMOS 839 DEB

AktivLEO
NORAD 17018·DEBRIS·🇷🇺 Russia

Gestartet Jul 8, 1976 von Plesetsk Cosmodrome

Loading…

Nächste Überflüge (nächste 24 Stunden)

TLE

AktuellSource: Space-Track

Epoche: Sep 14, 2026, 02:06 UTC

1 17018U 76067BJ  26257.08761126  .00000232  00000-0  98594-3 0  9991
2 17018  66.0193 266.3804 0615600  43.3727  55.6944 12.47501464894959

Verfolge COSMOS 839 DEB in Echtzeit mit AllMySat

Download on the App Store